Location: Newark
(48.1236°N, 0.7169°W)
Time: 20:14:45
(UTC+00:00)

Envisat - Pass Details

Date: 25 November 2019
Orbit: 764 x 766 km, 98.1° (Epoch: 05 December)

Event Time Altitude Azimuth Distance (km) Brightness Sun altitude
Rises 16:54:30 0° 135° (SE) 3,223 6.0 -6.6°
Reaches altitude 10° 16:57:01 10° 125° (SE) 2,301 5.2 -7.0°
Maximum altitude 17:01:25 31° 64° (ENE) 1,326 3.7 -7.7°
Drops below altitude 10° 17:05:51 10° 4° (N) 2,313 5.2 -8.3°
Sets 17:08:22 0° 354° (N) 3,244 6.1 -8.7°
